{"data":{"norad_id":68092,"intl_designator":"2026-042Z","name":"STARLINK-36896","alt_names":[],"object_type":"PAYLOAD","status":"ACTIVE","operator":null,"country":"US","launch_date":"2026-03-04","launch_site_code":"AFETR","launch_vehicle":null,"mission":null,"orbit_class":"UNKNOWN","rcs_meters":null,"size_class":null,"mass_kg":null,"dimensions":null,"purposes":["comms"],"wikipedia_slug":null,"has_3d_model":false,"image_url":null,"decayed_at":null,"tle_current":{"epoch":"2026-09-19T14:42:51.734592Z","epoch_age_seconds":132164,"freshness":"FRESH","line1":"1 68092U 26042Z   26262.61309878  .00038610  00000+0  11470-2 0  9991","line2":"2 68092  53.1596 353.8589 0001427  90.6969 269.4197 15.34426949 32044","mean_motion":15.34426949,"eccentricity":0.0001427,"inclination_deg":53.1596,"raan_deg":353.8589,"arg_perigee_deg":90.6969,"mean_anomaly_deg":269.4197,"bstar":0.001147,"rev_number":3204,"period_min":93.846109841753,"perigee_km":461.64696679971,"apogee_km":463.59931974461,"semimajor_km":6840.7601432722,"source":"CELESTRAK","updated_at":"2026-09-20T09:00:43.782818Z"}}}